GFSMW_sfc_30mbdewp_228.txt.gz
Dewpoint
28 37 49 53 57 59 60 62 63 65 66 65 64 63 63 65 65 65 65 65 65 64 63 60 59 61 60 60 60 60 58 57 57 54 54 54 53 54 54 55 57 56 56
28 32 41 48 52 54 60 62 63 64 65 64 64 64 64 65 65 65 65 65 63 61 60 62 61 60 59 59 59 58 57 57 57 54 52 48 49 51 52 53 53 54 55
29 30 39 46 52 54 54 59 62 64 64 65 64 64 64 64 64 63 62 61 60 60 61 60 59 57 57 56 57 58 57 55 56 55 51 48 45 48 50 51 51 51 50
39 41 45 48 52 56 59 59 61 64 64 64 64 63 62 60 60 59 56 53 57 57 57 56 53 52 52 53 54 55 56 56 53 54 54 53 50 46 46 47 48 49 49
42 44 49 51 54 59 61 62 62 62 63 63 63 63 62 60 57 50 47 47 51 52 51 51 51 51 51 51 53 53 54 54 53 53 53 53 50 49 46 45 43 46 47
43 48 52 55 57 59 61 62 62 62 63 64 64 64 61 55 46 43 43 43 47 50 51 51 52 52 52 52 51 52 52 52 53 53 52 51 48 46 44 44 44 44 46
45 49 52 55 57 59 60 61 62 63 64 64 64 62 57 48 43 42 39 41 43 46 48 51 51 51 51 51 51 51 50 51 51 51 51 51 51 50 49 47 45 42 41
45 50 53 55 57 59 60 61 62 61 62 63 61 53 46 44 40 42 40 42 42 44 47 51 51 50 50 50 50 50 49 50 51 50 50 49 49 49 50 48 45 41 37
43 49 52 56 58 59 60 62 62 62 62 57 49 48 47 44 43 46 48 46 47 48 50 50 49 49 50 50 49 49 49 49 49 49 49 49 48 49 48 49 47 44 37
42 47 51 54 56 58 59 61 61 55 49 46 46 46 47 49 48 49 49 49 49 50 49 48 48 49 49 49 49 49 49 48 48 48 47 47 47 47 47 47 48 47 44
40 44 47 51 53 54 56 56 53 45 43 44 46 48 50 49 49 48 47 48 49 48 47 47 46 47 47 48 48 48 48 48 47 46 46 45 46 45 45 46 45 46 46
38 41 45 47 48 48 50 48 45 44 44 46 45 46 46 46 46 47 46 46 45 44 43 44 45 45 46 47 47 47 47 46 46 46 46 44 44 44 44 43 43 44 44
37 39 43 45 46 44 42 41 41 43 44 42 42 43 44 45 45 44 43 39 37 37 38 38 39 40 43 44 46 47 46 46 46 46 45 44 44 42 42 42 42 42 42
36 37 39 42 45 45 43 41 41 41 40 39 40 43 43 42 41 39 37 37 37 37 35 36 37 39 43 44 46 46 46 46 45 44 45 44 42 41 40 40 40 40 40
37 38 39 40 40 44 45 43 41 40 40 39 40 41 41 38 37 37 36 37 38 37 36 36 38 39 43 45 46 45 45 45 44 44 44 44 41 40 39 39 39 39 39
38 39 39 39 39 41 43 41 40 40 40 39 35 35 35 35 36 37 38 37 37 36 37 38 39 40 45 44 44 44 44 44 44 43 43 42 40 39 38 37 38 39 35
38 39 40 40 39 39 39 39 39 39 35 31 32 33 34 33 35 36 36 35 35 38 39 39 40 43 44 44 43 43 43 43 43 42 41 40 39 39 38 39 38 37 35
40 40 40 39 37 37 39 38 36 33 31 31 31 33 34 34 35 36 36 36 38 39 41 41 42 43 43 43 42 42 41 42 42 41 40 40 38 38 38 38 37 36 35
39 40 39 37 37 37 37 33 30 31 32 31 32 34 36 35 35 36 36 39 40 41 41 42 42 42 42 42 42 40 40 39 39 39 40 41 38 38 37 36 35 34 33
35 35 36 37 37 36 34 31 30 32 31 32 33 36 37 36 35 36 39 40 40 39 40 39 39 40 41 42 41 40 40 38 37 37 38 38 38 38 37 36 34 32 31
34 35 35 35 35 34 32 33 35 31 33 36 36 37 36 36 37 39 39 39 39 40 40 38 38 39 39 39 38 38 39 38 37 36 36 37 37 37 37 37 35 34 34
33 33 32 31 31 31 29 31 34 38 37 38 37 37 38 39 38 39 40 39 39 39 38 37 37 39 38 36 37 36 37 38 36 35 36 36 36 35 36 36 36 35 34
31 28 26 27 29 29 29 32 38 40 40 39 40 40 39 39 39 39 39 39 38 38 37 37 36 36 36 35 35 35 36 36 36 36 35 35 35 34 35 35 35 34 33
24 22 26 29 32 34 35 37 38 39 37 37 37 38 39 38 39 39 39 39 38 37 36 35 34 34 34 35 35 34 36 35 34 34 34 34 34 35 33 32 33 34 32
25 26 27 31 33 36 36 36 36 35 34 34 34 35 36 37 37 39 38 37 38 38 36 35 34 33 33 33 33 33 33 33 33 32 32 31 32 31 31 32 32 33 32
31 32 33 33 34 34 34 35 36 35 34 33 33 36 36 38 38 37 35 35 36 35 34 34 34 34 34 33 33 33 33 33 32 32 31 31 31 31 31 31 31 31 32

GFSMW_sfc_30mbdewp_234.txt.gz
Dewpoint
27 27 34 38 43 48 57 61 65 66 65 65 65 65 64 65 65 65 65 65 65 65 66 65 63 60 58 60 59 58 58 57 58 56 56 56 57 57 57 56 55 55 56
26 27 31 40 43 47 57 61 66 66 65 65 65 65 64 64 64 64 65 65 66 66 66 64 58 59 58 59 58 58 56 56 56 54 54 49 51 54 54 55 54 55 56
27 30 31 42 47 51 56 59 64 67 66 65 65 65 64 64 64 63 65 65 66 66 64 62 58 58 58 57 56 54 53 53 53 53 53 48 45 49 52 52 53 54 54
29 30 31 34 44 49 54 55 59 65 67 66 65 64 63 62 63 64 64 65 66 65 63 58 58 57 58 55 53 53 53 52 51 52 53 54 53 48 46 47 52 53 53
33 34 37 39 41 48 53 55 56 59 67 66 65 65 63 63 63 64 64 65 65 64 59 58 57 54 52 51 51 51 52 53 52 51 51 52 52 52 50 47 46 51 52
36 37 41 46 47 51 59 61 61 58 67 66 65 65 63 63 63 63 63 63 62 58 56 54 54 53 53 52 53 53 53 53 53 53 52 52 51 49 49 48 47 47 47
36 39 45 49 49 56 60 61 61 63 66 66 66 65 64 64 63 62 62 57 56 53 52 52 53 53 53 53 54 53 53 53 53 52 52 52 52 52 51 49 48 47 48
37 39 42 47 51 56 60 61 62 62 63 64 65 65 65 64 63 61 58 54 50 50 53 52 52 52 52 52 52 52 52 53 52 53 52 52 51 51 50 48 47 46 45
35 39 43 48 52 56 59 61 61 61 62 63 63 64 65 64 61 59 55 48 47 47 50 51 51 52 52 51 51 51 51 52 52 52 52 51 51 51 50 50 48 47 43
35 38 41 49 51 55 58 61 61 61 62 63 63 64 64 63 61 56 49 46 45 44 49 51 51 51 50 50 50 50 51 50 51 51 51 51 50 48 49 48 47 48 46
36 37 40 44 48 52 57 61 61 61 62 63 64 63 64 60 52 49 49 47 48 49 51 51 51 50 50 49 49 49 49 49 49 49 49 49 49 48 48 48 48 47 46
36 37 39 42 45 48 50 54 61 61 61 63 63 63 57 52 50 50 50 50 49 51 50 49 48 45 41 40 41 41 41 43 44 45 46 46 48 48 48 47 47 46 46
37 37 38 39 40 44 48 50 53 59 60 60 62 55 52 51 51 50 50 50 50 50 46 43 40 38 38 37 38 39 40 41 44 46 47 46 46 46 47 46 46 45 45
35 37 38 39 42 42 42 46 49 51 57 56 52 51 51 52 52 50 49 50 47 43 40 39 37 37 37 38 39 39 43 45 44 45 47 47 46 45 45 45 45 43 42
36 36 38 39 42 43 44 45 46 50 53 54 49 49 52 51 49 48 47 44 40 39 38 37 37 39 40 40 43 43 44 44 44 45 45 46 46 46 46 45 43 41 40
36 36 38 39 40 42 42 41 43 47 50 50 48 49 49 48 47 46 42 40 41 39 38 37 38 40 42 41 42 42 44 45 44 44 44 45 45 45 44 43 41 40 38
37 38 38 39 41 41 42 42 42 45 48 46 47 45 47 46 44 41 39 39 38 37 37 38 40 42 43 43 43 43 43 43 42 42 43 44 45 44 43 41 40 38 38
38 39 40 41 42 43 42 43 43 43 47 45 44 43 45 41 40 39 37 36 36 37 38 41 41 41 41 41 42 41 41 41 41 42 42 42 42 41 41 39 39 39 39
39 41 42 42 42 42 42 42 41 43 45 44 44 42 39 37 38 38 36 36 36 40 40 40 40 40 40 41 41 41 42 42 40 41 41 41 41 41 40 38 37 36 35
40 40 39 39 39 40 41 41 42 43 43 43 42 37 36 35 36 36 36 39 40 40 41 40 40 39 40 40 39 39 38 39 40 41 40 40 40 40 39 37 36 34 33
38 35 35 35 37 40 41 41 42 42 41 38 35 34 35 35 35 34 36 39 40 40 40 39 40 41 41 39 38 37 37 37 37 38 38 39 39 39 38 37 37 35 33
34 34 35 35 38 39 41 41 40 38 36 36 37 37 36 33 35 37 38 39 40 40 40 40 39 38 39 39 38 37 36 36 36 35 37 37 38 38 37 36 37 34 33
34 34 33 36 38 38 38 40 38 39 38 38 38 40 40 39 40 40 39 40 40 40 39 39 37 36 36 36 37 36 35 35 35 36 36 37 36 37 36 36 34 32 32
34 33 33 35 35 35 35 40 37 39 41 40 40 40 40 39 39 39 39 39 39 39 38 36 35 35 34 35 35 34 33 35 35 35 35 35 35 35 35 34 32 32 32
35 34 32 31 31 32 36 36 39 38 39 39 39 39 40 39 39 40 39 38 38 39 39 37 36 34 33 34 33 33 32 33 34 33 33 32 32 32 32 32 32 32 31
43 38 30 32 32 36 36 37 36 36 36 35 35 36 38 38 38 38 39 39 38 39 38 37 36 35 35 34 33 32 33 34 33 32 31 31 31 31 31 31 31 31 31

GFSMW_sfc_30mbdewp_237.txt.gz
Dewpoint
28 31 33 37 48 59 61 65 66 66 66 65 64 64 64 65 65 65 65 65 65 65 65 65 64 63 63 60 60 59 58 56 56 55 55 55 56 55 56 56 56 56 55
28 30 31 36 44 57 60 62 66 66 65 64 64 64 64 65 64 65 65 65 65 65 65 65 65 63 60 59 57 55 56 56 56 54 53 49 48 53 55 56 55 55 54
27 27 29 38 45 56 60 62 64 65 65 64 64 65 65 64 64 64 63 64 65 65 65 65 64 61 59 58 56 56 55 52 53 54 51 48 44 49 49 52 53 54 54
30 33 43 46 50 56 60 64 65 65 65 65 64 64 63 62 63 63 63 65 65 65 66 65 61 59 58 56 56 55 52 52 49 51 52 53 52 49 47 48 50 52 52
32 34 36 40 45 51 52 61 66 66 65 65 64 64 63 62 63 63 63 63 65 65 65 62 60 59 57 56 54 53 53 52 51 51 50 50 51 52 50 46 47 48 51
37 39 42 44 46 52 56 59 60 66 66 65 65 64 63 63 62 62 63 63 64 65 63 60 59 56 53 50 50 51 52 52 52 52 52 51 50 48 48 47 47 46 47
36 44 45 47 51 55 58 59 60 63 66 65 65 64 64 63 63 63 63 63 63 61 60 59 56 53 52 51 52 52 53 53 53 52 52 53 52 52 51 50 49 47 47
37 41 44 46 49 57 59 59 59 61 65 65 65 65 65 64 64 64 64 63 61 58 58 56 54 52 52 53 53 52 52 53 52 52 52 52 52 52 51 49 48 45 44
36 38 45 49 50 55 58 59 59 61 63 64 65 65 65 64 64 63 61 58 57 56 55 54 53 52 52 52 52 51 51 52 51 51 51 52 52 52 51 49 48 46 42
35 39 45 49 52 55 58 60 60 60 61 62 62 63 64 65 64 61 59 56 54 54 54 54 52 52 52 51 51 50 50 50 50 51 50 50 51 51 50 48 47 47 45
34 39 45 48 51 55 57 59 60 60 61 61 62 62 63 64 62 60 58 54 52 51 52 52 51 51 49 49 49 49 50 50 49 49 49 49 50 49 49 48 48 47 46
38 39 40 47 50 53 57 59 60 61 61 62 62 63 63 63 60 58 56 51 49 50 51 51 50 49 49 45 41 40 41 42 41 43 45 45 46 47 47 47 47 46 46
35 37 39 42 44 48 53 58 60 61 61 62 62 62 62 59 55 53 50 50 50 51 50 49 46 41 39 38 38 40 41 40 42 44 45 45 45 44 45 46 46 46 46
37 36 37 38 42 44 46 49 54 61 61 61 62 62 60 56 52 51 51 51 51 48 46 43 40 40 38 39 42 42 42 44 44 43 44 45 45 44 44 44 45 45 43
37 37 38 38 38 40 42 44 49 52 58 59 58 58 56 52 51 51 50 49 48 45 41 39 38 40 42 43 43 42 42 42 43 43 43 44 45 46 45 45 44 43 42
35 36 38 39 38 39 43 44 44 48 52 55 53 53 52 51 50 49 48 45 42 40 38 39 40 41 43 43 43 42 42 42 44 42 42 43 44 45 44 45 44 42 41
37 36 37 39 42 42 44 44 44 47 50 52 52 51 51 50 49 46 44 41 39 39 38 40 41 43 44 43 43 42 42 42 41 41 40 41 43 44 44 43 42 40 39
37 38 40 42 43 43 43 44 43 44 48 49 49 49 49 47 45 42 41 40 39 39 39 42 42 41 41 41 41 40 41 41 41 40 40 40 41 42 42 41 40 39 39
40 41 43 43 43 43 43 42 42 46 46 46 45 46 45 43 41 40 38 39 38 40 41 41 41 41 40 41 40 40 40 39 40 40 40 40 40 41 41 39 37 37 36
39 40 41 41 41 41 41 41 41 44 45 45 44 43 41 41 39 38 38 39 40 40 40 40 40 40 39 40 40 39 38 37 37 37 39 40 40 40 40 38 37 35 35
35 36 36 37 39 41 41 41 42 42 45 45 41 40 38 38 38 38 39 40 40 40 40 40 40 40 40 40 38 37 37 36 37 36 36 37 38 39 39 38 37 36 35
35 34 34 36 39 41 41 42 41 42 40 39 39 38 36 37 37 37 39 40 40 40 39 39 38 39 39 40 38 37 36 36 35 35 34 36 37 38 38 38 37 36 34
36 35 34 38 39 40 41 39 40 39 39 39 39 38 39 39 39 39 39 40 40 39 39 38 38 38 36 36 37 37 36 34 33 34 35 36 36 36 36 37 36 33 33
45 46 45 37 36 38 40 39 40 41 40 39 39 38 38 38 39 40 40 39 39 38 38 37 36 35 35 34 35 34 33 33 34 34 35 35 35 35 35 34 33 33 33
45 45 46 42 39 38 39 39 40 40 39 40 39 38 38 38 38 38 37 37 37 38 38 38 36 35 34 34 34 32 31 31 33 33 33 33 32 32 32 32 31 32 32
41 40 44 41 39 38 37 38 39 40 39 39 39 40 39 39 39 39 39 39 39 38 38 39 37 35 35 35 33 31 31 33 34 32 31 31 31 31 31 30 30 31 31

GFSMW_sfc_30mbdewp_243.txt.gz
Dewpoint
26 31 49 50 53 60 63 65 65 65 66 66 65 65 65 66 66 66 66 67 66 67 66 65 64 64 63 62 62 60 59 58 57 56 54 53 53 53 54 54 53 54 55
27 27 28 33 47 56 62 63 65 66 66 66 66 65 65 65 66 66 66 67 66 67 66 65 64 64 63 63 62 60 58 58 57 54 50 42 40 47 50 52 53 53 53
26 27 29 37 48 55 60 62 65 66 66 66 66 64 63 63 63 64 65 66 66 66 66 65 65 64 63 62 62 60 59 57 56 53 46 42 35 43 48 48 49 50 50
28 27 28 38 53 57 60 62 64 65 66 66 65 64 63 62 63 63 64 64 65 65 66 65 65 64 64 63 62 60 60 58 55 54 53 48 42 43 43 47 47 49 49
26 27 29 33 48 56 60 61 64 65 65 65 64 64 63 62 62 63 63 63 64 65 65 65 65 65 64 63 61 58 57 54 52 51 51 51 51 50 49 45 45 47 48
35 40 45 49 48 57 61 63 64 65 64 64 64 63 63 62 61 61 62 62 63 64 64 64 65 64 64 62 60 58 56 54 54 52 51 47 47 47 46 46 46 46 47
42 43 50 54 55 58 61 63 64 64 64 64 64 63 63 63 62 61 62 62 62 63 63 63 63 64 63 60 59 57 54 54 53 51 50 50 50 50 49 49 45 44 46
39 42 45 50 55 58 60 62 63 62 63 64 64 63 63 63 63 62 62 62 62 63 63 64 63 62 60 58 58 57 56 54 53 52 51 51 51 51 51 45 40 43 43
36 39 43 47 50 54 58 60 62 62 63 63 63 63 64 63 63 63 62 63 63 63 63 63 63 61 58 58 57 55 54 54 52 51 51 51 50 51 48 47 50 47 42
35 36 38 43 48 54 56 58 59 60 62 63 64 64 64 64 64 64 63 63 63 63 62 61 60 57 57 56 56 54 53 52 50 50 49 49 49 46 49 51 50 49 46
35 35 35 39 44 48 55 57 58 58 59 62 63 64 64 64 64 64 64 63 63 61 61 59 58 56 56 56 54 52 51 49 49 49 48 45 47 48 49 49 49 48 46
35 36 36 36 41 46 49 54 57 57 57 59 62 63 63 63 63 63 63 62 61 60 60 58 57 56 55 54 52 50 49 48 47 44 42 43 44 46 46 45 44 45 45
33 34 36 37 38 43 49 52 54 55 57 57 58 60 61 61 62 62 62 60 59 58 58 57 56 55 54 52 50 48 46 41 41 41 42 43 45 43 43 43 42 43 44
34 34 36 37 40 42 48 51 53 55 56 58 58 57 58 59 59 60 60 59 58 56 55 55 55 54 51 49 45 41 40 41 42 43 44 43 43 42 42 42 43 42 42
35 35 36 38 39 41 44 49 52 53 56 58 59 58 59 59 60 60 59 58 57 55 53 53 52 50 47 43 41 42 42 43 44 44 43 43 43 43 43 43 43 43 42
38 39 39 38 38 39 40 42 46 49 55 58 58 59 59 60 60 59 57 56 54 53 52 50 47 44 41 40 41 43 43 42 42 41 42 42 42 41 42 42 43 43 43
40 42 43 43 42 43 43 42 43 46 53 57 58 59 59 59 59 56 54 53 52 50 49 46 43 41 41 41 41 42 42 41 41 41 41 41 41 41 41 42 42 42 42
36 36 39 41 43 43 44 44 46 47 49 52 56 57 57 57 56 54 53 51 49 47 45 43 42 42 41 41 42 43 42 41 40 40 40 39 39 39 39 39 40 41 41
37 36 37 40 42 42 42 42 42 45 45 46 48 51 53 53 52 52 51 49 46 45 43 42 42 43 42 42 42 41 41 40 39 39 39 39 39 39 39 39 38 38 38
40 38 38 40 40 41 41 39 40 40 40 44 46 47 49 50 49 48 47 45 45 43 42 43 43 42 42 42 41 41 40 39 38 37 37 37 37 38 39 38 37 36 37
43 43 38 38 39 41 42 40 40 39 41 44 44 44 45 46 46 44 43 42 42 43 43 42 42 42 42 40 40 40 40 38 36 35 35 35 35 36 36 37 37 36 37
44 45 45 41 39 40 40 39 38 40 40 41 41 41 41 42 42 42 42 43 43 42 41 41 39 40 40 40 40 40 39 37 35 35 35 35 35 35 35 36 36 36 36
44 44 45 44 40 40 39 38 38 40 40 40 39 40 40 40 41 41 41 41 40 39 38 38 39 39 38 39 39 38 37 36 34 34 34 34 34 34 34 36 36 35 34
42 43 42 41 41 42 40 40 41 41 41 39 39 39 39 39 40 40 40 39 39 38 38 38 38 38 38 37 37 36 36 34 33 33 33 33 33 34 34 34 34 33 34
39 40 40 39 40 38 37 37 38 40 40 39 39 39 38 38 38 37 37 38 38 39 38 38 38 37 36 36 36 35 33 32 32 32 32 32 32 32 32 32 32 32 32
37 37 37 36 35 36 36 36 36 37 39 39 39 39 39 38 38 37 36 38 38 39 39 39 38 37 37 36 36 35 33 32 32 31 30 31 31 31 31 31 30 31 31

GFSMW_sfc_30mbdewp_246.txt.gz
Dewpoint
41 47 53 56 59 62 65 66 65 65 64 63 63 63 63 63 64 65 65 65 65 65 65 65 65 64 63 63 62 61 61 59 58 58 56 55 54 54 53 53 53 53 53
28 28 28 45 56 59 63 65 65 65 65 64 64 63 63 64 64 65 65 66 65 66 65 65 65 64 64 63 62 61 60 60 58 57 52 51 44 46 49 52 52 52 52
28 28 28 30 52 55 59 63 65 65 65 65 65 64 64 63 64 64 65 65 66 66 66 66 65 65 64 63 62 62 61 59 58 56 54 45 42 42 46 47 48 48 49
33 31 29 29 32 45 53 61 63 64 65 65 65 64 63 63 63 64 65 65 65 66 66 66 65 65 64 64 63 63 62 61 58 55 54 49 46 43 41 46 46 47 48
38 35 33 30 39 48 48 58 61 64 65 66 65 65 64 64 62 63 63 64 64 65 65 66 65 65 64 64 63 62 61 58 55 54 52 52 52 50 47 44 44 46 47
41 44 51 47 46 56 59 61 62 63 65 66 65 64 64 63 62 62 62 62 63 63 64 65 65 65 65 64 63 62 60 56 55 53 52 51 49 49 49 48 47 44 46
39 42 49 53 52 55 59 61 63 63 64 65 65 64 64 63 62 62 62 62 62 62 63 64 64 64 64 64 63 60 58 56 54 53 52 51 49 49 48 46 46 45 44
36 39 43 50 55 56 59 61 62 62 63 64 64 64 64 63 63 63 62 62 62 62 62 63 63 63 63 62 61 59 57 56 54 53 52 51 51 51 50 47 39 38 41
35 36 38 43 48 54 57 59 61 62 63 63 63 63 63 63 63 63 62 62 62 62 63 63 63 63 62 61 59 58 56 55 53 50 50 51 51 51 50 47 44 42 41
34 34 35 37 41 47 53 57 60 61 62 62 63 63 63 63 63 63 63 62 62 63 62 62 62 61 60 59 58 56 55 54 54 53 52 51 50 50 50 47 48 49 47
33 34 34 35 36 39 44 50 56 58 61 62 62 63 63 63 63 63 63 63 63 62 63 62 61 59 58 57 56 55 54 53 52 50 51 49 49 48 47 49 48 49 48
32 34 35 36 37 37 40 45 51 56 57 59 61 62 63 63 62 62 62 63 62 62 61 61 59 58 57 56 55 54 53 52 50 50 48 47 47 46 46 46 47 47 46
33 36 36 37 37 38 40 43 49 53 56 58 58 60 61 62 62 62 62 63 63 61 61 60 58 57 56 55 55 53 52 50 49 48 45 42 43 43 45 45 43 43 42
36 37 39 39 39 40 41 42 46 52 55 56 57 57 58 60 61 62 62 62 61 60 59 59 58 56 56 55 53 51 50 48 46 44 42 42 43 44 43 42 42 42 42
39 40 42 43 44 43 42 43 44 49 54 55 56 56 57 58 59 59 59 59 59 58 57 57 56 55 54 53 51 50 47 44 42 42 43 44 44 43 43 42 42 42 42
39 39 40 42 43 43 44 45 46 45 47 51 55 57 58 58 58 58 58 57 57 57 56 55 55 53 52 51 48 47 44 42 42 43 43 43 43 43 42 42 43 43 42
35 35 36 40 41 42 43 44 46 48 49 51 53 56 58 58 58 58 57 57 56 55 55 54 53 51 50 46 44 43 43 43 42 41 41 42 42 41 41 41 41 40 41
36 36 37 39 41 42 41 42 42 43 43 44 45 47 50 54 56 55 55 55 53 53 52 52 50 48 44 42 42 42 42 41 41 41 41 40 40 40 39 40 39 40 41
40 40 39 39 40 41 42 41 40 40 41 42 44 45 47 48 50 50 51 51 50 49 48 47 46 45 41 41 41 42 40 40 40 40 40 40 39 39 39 38 37 37 38
43 44 44 41 40 40 41 40 40 39 39 41 43 44 44 45 46 47 47 47 47 46 45 44 44 43 41 42 42 41 41 39 39 39 38 39 38 38 39 38 37 36 37
43 44 45 44 41 40 41 39 39 39 41 41 42 41 41 41 42 44 44 43 44 43 43 42 43 43 42 41 42 41 40 39 38 37 36 36 36 36 36 37 36 36 37
43 43 44 42 42 41 40 40 40 41 41 40 40 40 40 40 41 41 42 43 43 42 41 41 40 41 41 41 41 41 41 39 37 36 35 35 36 35 35 35 36 36 36
42 42 42 41 42 40 39 38 39 41 40 39 38 38 39 39 40 40 40 40 40 39 36 36 36 37 38 39 40 40 40 38 36 35 34 34 34 34 34 34 34 35 34
39 39 38 38 36 36 36 36 37 40 39 39 38 38 38 37 37 37 37 37 37 36 35 34 33 34 34 35 36 36 36 36 34 34 33 33 33 33 34 34 34 34 33
37 37 36 35 35 35 35 36 36 37 38 37 37 38 38 37 36 35 35 35 35 37 36 37 37 35 33 36 37 35 34 34 33 32 32 32 32 32 32 32 32 32 32
35 34 34 34 35 35 35 35 36 36 35 34 34 34 34 34 33 33 34 35 36 36 36 37 36 37 37 37 36 35 35 33 32 31 30 30 31 31 31 31 31 31 31

GFSMW_sfc_30mbdewp_249.txt.gz
Dewpoint
40 49 54 57 59 61 64 64 64 64 64 63 62 62 62 62 62 63 63 63 63 63 64 63 63 64 63 63 63 63 63 63 63 62 61 60 58 57 57 56 55 54 54
30 31 33 41 57 59 62 64 65 65 64 63 63 63 63 63 63 63 63 64 64 64 64 64 63 64 63 64 64 64 63 62 63 61 59 56 50 50 52 54 53 53 52
34 36 36 36 37 52 60 62 64 65 65 64 64 64 64 64 64 63 63 64 64 65 65 65 65 65 64 63 63 64 63 62 62 62 59 50 50 45 50 52 52 51 48
40 39 40 38 35 43 56 60 63 65 65 65 64 64 63 62 63 63 64 64 65 65 65 66 66 65 65 65 65 64 64 64 62 58 54 50 47 46 45 49 49 49 49
42 45 51 47 36 40 43 56 61 64 65 65 65 65 64 64 64 64 65 65 66 66 65 65 65 65 66 65 65 64 64 63 62 57 52 51 51 51 48 46 46 48 49
41 44 52 53 50 57 56 55 58 62 65 66 65 65 65 64 64 64 64 65 65 65 65 65 66 66 66 65 65 65 64 63 62 60 55 52 50 49 49 48 47 46 47
38 40 43 49 55 55 59 61 61 62 65 65 66 66 66 65 65 64 64 64 64 64 64 64 65 65 65 65 65 64 64 62 59 57 56 54 52 52 50 49 47 46 47
37 37 38 42 46 54 58 61 62 62 64 65 65 66 66 65 65 65 64 64 64 64 64 64 65 65 65 65 65 64 62 59 57 54 54 53 52 51 50 49 46 44 44
33 33 34 36 38 42 49 57 60 61 62 63 64 65 65 65 65 65 65 65 64 64 64 64 64 64 64 64 64 63 60 57 55 55 53 53 52 52 51 50 47 42 41
33 34 36 38 39 40 42 48 55 58 60 62 63 64 64 65 65 65 64 64 64 64 63 64 64 64 64 63 63 60 58 56 55 54 53 52 52 51 52 51 47 44 43
33 36 39 40 41 42 43 43 46 49 54 59 62 63 64 64 64 64 64 64 64 64 63 63 63 63 62 61 60 59 56 55 53 52 51 51 51 51 52 51 48 46 48
36 39 40 42 43 44 44 43 45 47 50 54 58 62 63 63 63 63 63 63 63 63 63 62 62 62 60 59 58 56 55 54 53 53 52 50 51 52 51 50 47 47 48
39 41 43 44 45 45 45 46 46 47 49 52 57 59 61 62 63 63 63 63 63 63 62 62 61 60 59 58 57 56 55 54 54 53 51 50 51 50 49 47 46 47 48
41 42 43 43 44 45 45 46 48 49 50 54 56 57 58 60 61 62 62 62 62 62 62 61 61 60 58 57 56 55 55 54 53 52 51 50 49 48 47 46 46 46 44
38 38 40 42 41 42 42 43 46 48 51 53 55 57 58 58 58 59 60 61 61 61 61 60 60 59 58 57 56 55 54 53 51 50 51 50 47 45 45 45 45 44 42
36 36 38 40 41 41 42 42 43 45 46 46 47 49 53 57 59 59 59 59 59 59 59 58 58 57 57 56 54 55 53 52 51 50 48 46 44 43 43 43 43 43 42
36 37 38 40 40 42 42 42 42 43 43 44 44 45 47 48 51 54 56 56 56 57 57 57 57 56 56 54 52 51 53 51 49 47 45 43 43 43 42 42 42 42 42
39 41 41 41 42 42 42 42 41 41 42 42 42 43 44 44 46 47 49 50 52 53 53 54 54 53 52 49 48 47 46 44 43 43 43 42 42 42 41 41 40 41 42
43 44 44 42 41 40 41 41 41 41 41 41 41 42 42 42 43 44 46 47 47 48 49 50 49 48 45 42 43 44 42 41 40 40 41 41 40 40 40 39 38 38 39
43 42 44 40 39 41 41 41 41 41 41 41 41 41 41 41 42 43 43 44 45 45 46 46 46 45 42 41 41 41 40 39 39 39 39 39 39 39 39 38 37 36 37
41 43 42 41 41 41 41 41 41 41 41 41 40 40 40 40 41 42 43 43 44 44 44 43 43 42 41 41 41 40 39 39 38 37 36 36 37 37 38 38 37 37 38
42 42 41 40 38 38 39 39 39 40 40 40 40 39 40 40 40 41 41 41 42 40 38 37 37 38 39 39 40 40 39 38 36 35 36 36 36 36 36 36 36 37 36
39 39 38 37 37 37 37 37 38 40 40 40 39 40 39 38 39 39 39 38 37 35 34 33 33 35 36 36 37 38 38 38 37 36 36 35 35 35 35 35 35 35 35
37 37 37 36 35 36 36 36 36 37 37 36 38 39 38 37 37 37 37 36 36 36 35 35 35 35 35 35 36 37 37 36 35 35 34 33 32 32 33 33 34 35 34
36 36 35 35 35 35 34 35 35 36 35 35 35 36 36 35 35 35 34 34 35 35 35 35 36 35 34 35 37 37 35 35 34 33 32 31 31 32 32 32 33 33 33
35 33 34 34 34 32 31 32 33 34 34 33 33 33 33 33 33 32 32 33 33 34 36 36 35 35 36 36 36 36 35 34 33 31 31 31 31 31 32 32 32 32 32

GFSMW_sfc_30mbdewp_252.txt.gz
Dewpoint
31 34 40 45 51 54 57 60 61 62 63 62 62 61 60 61 61 62 62 62 62 63 63 62 61 63 62 61 62 62 62 62 63 62 62 62 62 63 61 59 57 55 55
31 33 33 37 46 52 56 59 61 62 64 62 62 60 60 60 61 62 62 63 63 63 63 63 61 61 62 62 63 63 63 63 63 62 61 59 56 56 57 57 57 55 53
36 37 38 39 40 41 50 56 59 61 63 64 62 62 62 62 61 62 62 63 64 63 63 63 63 62 63 62 63 64 64 62 62 64 61 54 55 50 52 53 55 53 52
40 44 46 44 39 40 41 47 55 58 62 64 63 62 61 60 60 61 62 63 64 65 64 64 64 64 64 65 65 65 65 65 63 63 64 60 57 50 47 50 52 52 51
43 45 49 47 47 45 43 51 54 58 61 63 65 63 63 63 62 62 63 64 64 66 66 65 66 66 66 66 66 65 65 65 64 61 55 54 52 52 50 48 48 51 51
40 41 45 49 51 55 55 49 53 56 60 63 65 65 64 64 63 63 63 64 65 67 67 66 66 66 66 66 66 66 65 65 64 64 58 57 54 51 51 51 48 49 49
38 37 39 41 46 51 56 58 58 57 59 62 64 64 65 65 64 64 64 64 63 66 66 66 66 66 66 66 66 65 65 65 64 63 60 59 59 57 53 53 50 49 49
33 32 34 36 38 42 48 55 57 58 61 62 64 64 65 65 64 64 64 63 64 64 65 66 66 66 66 66 66 65 65 64 64 63 61 59 57 55 55 53 51 47 47
30 32 35 39 39 43 45 48 49 50 54 58 61 63 64 65 64 64 65 65 65 65 65 66 66 66 66 65 66 65 64 64 63 61 59 57 56 57 56 53 51 48 47
31 36 37 40 42 45 46 48 48 46 47 49 54 58 61 63 64 65 65 65 65 66 65 65 65 65 65 65 65 65 64 61 60 58 56 55 55 55 54 54 51 50 48
36 38 39 43 45 47 47 48 48 48 48 49 51 54 58 61 63 64 64 65 65 65 65 64 64 64 64 64 64 64 62 60 58 56 55 55 55 54 53 52 51 49 46
38 40 43 45 46 47 47 48 50 50 51 51 52 55 58 59 62 63 64 65 64 64 64 64 64 64 63 63 63 62 60 59 57 56 55 54 54 53 52 52 51 50 47
40 43 44 44 44 44 45 44 46 50 52 53 54 55 57 58 59 60 62 63 63 63 63 63 62 62 62 62 62 61 59 58 58 57 55 54 53 53 52 51 50 50 49
41 43 43 43 43 42 42 42 44 45 45 46 48 52 55 57 58 59 60 60 61 61 62 62 62 62 61 61 61 60 59 58 57 56 55 55 54 52 51 51 52 51 48
39 41 42 42 41 42 43 43 44 44 45 45 45 46 48 49 52 55 58 59 60 60 60 61 61 61 61 61 59 58 58 57 56 56 56 55 55 52 51 51 52 49 47
38 38 40 40 41 42 43 43 43 43 44 43 43 44 44 45 47 49 50 52 54 56 57 58 59 59 59 58 57 57 57 56 56 55 54 54 52 50 49 49 48 48 45
37 38 39 42 43 43 43 42 42 42 42 42 42 42 42 42 44 45 46 47 49 50 51 52 54 55 56 55 54 53 52 55 54 54 53 47 45 45 43 43 43 42 43
38 41 42 43 41 39 39 39 39 40 41 41 41 41 41 41 42 43 43 44 45 46 47 48 49 50 51 46 46 48 48 47 46 46 46 43 43 44 44 42 41 41 42
43 43 42 40 40 39 39 38 38 39 39 40 40 41 41 41 41 42 42 43 44 44 45 45 46 46 46 41 41 44 43 42 40 41 42 42 42 40 41 39 38 38 39
40 41 39 39 39 40 40 40 40 40 40 40 39 40 40 40 40 41 41 42 43 43 44 43 44 42 41 39 40 41 40 38 38 38 38 38 39 39 39 38 37 36 37
40 40 39 38 38 39 39 40 40 40 40 40 40 40 40 39 39 41 40 40 41 40 39 38 38 39 39 38 38 38 38 38 36 36 35 36 37 37 38 38 37 36 38
40 39 37 37 38 38 38 38 38 40 40 40 39 39 38 38 39 39 39 39 38 37 36 36 36 36 37 37 38 38 37 37 36 35 35 36 35 35 36 36 36 37 37
37 37 37 37 37 37 37 36 37 37 37 37 37 37 38 38 38 38 38 38 38 37 36 37 37 37 37 38 37 37 37 37 37 37 37 36 35 35 35 35 35 35 35
37 36 36 35 35 36 35 35 35 36 36 35 35 36 36 36 36 36 36 35 34 34 35 36 36 37 37 37 38 38 38 37 36 35 35 34 32 32 32 32 33 33 33
36 35 34 34 34 33 33 33 34 34 34 35 35 34 35 35 35 34 34 33 34 33 33 33 34 33 33 34 35 35 35 36 35 34 33 32 32 32 33 32 32 33 33
35 33 33 32 31 30 31 31 32 32 32 30 32 32 31 31 31 31 31 33 32 31 32 33 33 35 35 35 35 35 35 35 33 32 32 32 33 32 33 33 32 32 32

GFSMW_sfc_30mbdewp_255.txt.gz
Dewpoint
30 31 31 35 41 43 46 52 58 62 62 62 63 62 61 60 61 61 62 62 63 64 65 64 63 63 62 62 63 63 63 62 62 61 62 61 62 62 63 63 62 59 57
29 31 32 37 41 44 48 52 56 60 62 62 62 61 61 60 60 60 62 62 63 64 64 65 63 63 62 63 63 63 62 63 63 62 62 59 61 60 62 63 61 61 58
33 35 36 37 39 42 47 51 54 58 61 63 62 62 62 61 60 60 60 63 64 64 65 65 65 64 64 63 64 64 64 62 63 64 62 58 57 58 56 56 57 58 56
38 42 42 42 42 44 43 45 52 56 60 63 63 63 61 60 60 60 60 61 64 65 65 66 65 65 65 64 64 65 65 64 63 65 65 63 61 56 53 53 54 56 54
40 42 44 45 48 45 44 46 46 51 57 60 63 63 63 63 62 62 62 63 64 66 66 66 66 66 66 66 65 65 66 65 65 65 63 61 58 58 56 51 50 53 54
38 40 44 47 50 55 52 53 53 53 56 59 62 64 64 64 64 64 64 64 64 65 67 67 67 67 67 67 67 67 66 66 65 65 63 60 57 54 53 53 51 51 53
37 37 39 41 45 49 54 55 54 55 57 60 62 64 65 65 65 65 65 64 64 65 66 68 67 67 67 67 67 66 66 66 65 65 64 62 60 60 56 56 54 51 53
37 35 36 37 39 43 47 49 48 50 56 60 61 63 64 64 64 64 65 65 64 64 65 68 68 67 66 66 66 66 66 66 65 65 64 62 61 61 57 56 55 51 51
33 34 37 38 41 42 47 49 47 45 47 49 53 57 60 61 62 64 65 65 66 65 66 67 68 67 66 66 66 66 66 65 65 65 64 64 61 60 58 57 56 54 50
32 35 37 40 43 46 49 50 50 49 49 50 51 51 53 56 59 62 64 66 66 66 66 66 67 67 67 66 66 65 65 65 65 64 63 62 61 58 58 57 56 55 53
33 37 40 43 46 47 49 50 51 52 53 53 54 56 57 58 59 60 63 64 65 66 66 65 65 65 65 66 65 65 65 65 64 62 61 60 59 57 57 56 56 54 53
36 38 41 44 46 46 46 47 49 50 52 54 56 57 58 58 58 59 60 63 64 64 64 64 64 64 64 64 64 63 63 63 62 61 58 58 57 57 56 55 54 53 52
38 39 42 43 44 45 45 45 46 46 46 46 48 51 52 54 57 59 60 61 62 62 63 63 63 63 63 63 63 63 63 62 61 60 58 57 57 56 55 54 53 53 52
37 41 43 44 44 44 44 45 46 46 46 46 46 47 48 49 50 52 53 55 58 59 60 60 61 62 62 62 62 62 61 61 60 59 59 58 57 56 55 54 53 53 52
38 41 42 43 43 44 44 44 45 45 45 44 44 45 45 45 47 48 49 50 51 52 53 54 56 58 59 60 59 60 60 59 59 59 59 59 58 56 55 55 53 53 51
37 41 42 41 42 43 43 44 43 43 42 42 42 42 42 42 43 44 44 46 47 48 49 50 51 52 54 45 46 46 50 54 56 57 57 57 56 55 52 51 50 52 52
37 39 40 42 43 43 42 41 40 41 40 40 39 40 40 40 41 42 42 43 44 45 46 46 47 48 44 41 42 43 47 49 49 48 50 52 49 51 50 48 49 48 49
38 40 42 43 41 40 39 39 38 38 39 38 38 39 40 39 41 41 42 42 43 44 44 44 45 45 41 40 42 43 44 41 40 40 42 43 42 42 43 44 43 43 42
41 43 42 41 40 40 40 39 38 38 37 37 37 38 38 37 38 39 41 41 41 42 42 43 42 40 38 38 40 41 40 39 38 39 39 39 39 39 39 39 38 38 38
42 40 40 40 40 40 40 39 39 38 39 39 39 38 37 36 37 39 39 40 40 40 40 39 40 39 39 38 37 39 39 38 38 37 37 37 38 38 38 38 37 37 37
40 40 39 38 38 39 39 39 39 39 39 39 38 37 37 36 38 39 39 39 38 39 38 38 38 38 38 38 37 37 38 38 38 37 37 37 36 36 36 37 37 36 37
39 38 38 38 37 37 37 37 37 37 37 37 37 37 38 37 38 38 38 39 39 38 38 38 39 40 40 39 38 37 37 37 38 37 37 37 35 35 35 35 35 35 36
38 37 37 36 36 35 35 34 35 36 36 36 35 36 36 36 36 37 36 36 35 35 34 36 36 37 38 38 38 37 37 38 37 37 37 36 35 34 35 34 34 34 34
36 36 35 34 33 33 33 34 34 34 34 34 34 34 35 34 35 35 34 33 32 32 33 34 33 34 35 36 36 36 37 37 37 36 36 34 33 33 33 33 34 33 33
35 35 34 32 31 31 31 32 32 32 31 31 31 31 32 32 32 32 33 33 34 32 32 33 33 33 32 33 34 34 35 35 35 34 33 33 33 34 34 34 33 33 33
34 33 31 30 30 29 29 29 29 29 29 28 28 29 29 29 30 30 30 32 34 33 33 33 33 34 34 34 34 34 34 34 34 33 32 32 33 33 33 33 32 33 33

GFSMW_sfc_30mbdewp_261.txt.gz
Dewpoint
30 31 31 35 35 35 51 57 59 64 67 67 67 67 67 66 66 66 65 64 66 67 66 65 65 65 63 63 63 62 62 62 62 61 60 61 60 60 62 62 61 60 59
29 31 33 35 42 45 53 58 59 64 65 66 66 66 66 66 66 65 65 65 65 66 66 66 66 65 64 64 63 63 62 62 62 61 60 59 59 61 62 62 62 61 62
30 35 39 44 45 49 57 60 60 63 63 65 66 66 66 65 64 64 64 64 65 65 66 66 66 66 65 64 64 63 63 61 62 63 60 58 57 58 60 61 62 62 62
38 42 43 43 43 45 46 52 61 62 63 65 65 65 64 64 64 63 63 63 64 64 65 65 66 66 66 65 64 64 63 63 62 63 63 62 59 57 55 57 58 59 59
40 43 47 47 47 47 48 47 52 63 63 63 64 64 63 63 63 63 63 63 64 64 64 65 65 66 66 65 65 64 64 64 63 62 62 63 63 62 58 56 54 57 57
44 48 52 53 52 54 55 54 47 54 64 63 64 64 63 64 65 65 65 65 66 67 67 65 65 66 66 66 66 65 65 65 65 65 64 63 62 61 59 56 54 53 55
45 50 53 55 57 55 55 56 57 59 63 65 65 65 66 66 66 66 66 65 65 66 66 67 66 66 67 66 66 66 66 66 65 65 65 65 64 62 61 59 55 55 55
45 48 52 54 55 55 54 56 56 58 60 60 61 62 64 65 66 66 66 66 66 66 67 67 66 67 67 67 67 66 66 66 66 66 65 65 64 62 60 59 58 53 54
43 46 48 50 51 51 52 52 53 53 54 55 57 59 59 59 60 61 62 63 64 64 66 65 65 65 65 67 66 66 66 66 66 66 65 65 65 63 62 62 60 58 54
41 43 46 50 52 53 54 54 54 55 58 59 59 60 60 61 61 61 61 62 62 62 62 63 63 64 64 64 64 65 65 64 65 65 65 64 64 63 62 60 60 59 58
40 43 48 52 53 53 54 55 57 58 58 58 57 57 58 58 58 58 59 59 61 60 60 61 61 60 60 60 60 60 62 63 63 64 63 63 62 61 61 60 59 58 57
42 46 50 52 52 51 51 51 52 52 53 53 53 52 53 53 52 52 54 54 54 55 56 56 57 57 51 51 51 51 54 55 56 59 60 59 60 60 60 59 58 57 57
44 48 49 49 49 49 49 49 50 51 50 50 49 50 49 50 50 50 50 50 50 50 52 52 51 46 43 43 44 47 48 50 52 53 54 57 59 58 59 58 57 57 57
46 47 47 48 49 49 48 48 48 48 46 45 44 45 46 46 46 47 47 48 50 49 49 50 46 43 41 41 42 44 47 48 47 48 48 48 46 45 47 51 56 57 56
46 48 47 47 47 48 47 45 45 45 45 43 42 43 45 44 45 45 45 47 47 47 46 44 42 41 38 39 40 43 43 43 43 43 44 43 41 42 43 45 45 46 48
46 45 46 46 47 47 45 43 43 42 42 42 41 41 42 42 43 44 44 44 43 43 43 41 40 38 37 37 38 40 40 39 39 40 40 40 39 39 41 41 40 39 41
45 45 46 47 46 44 44 42 41 41 40 40 39 39 40 40 42 42 42 41 41 41 40 41 40 38 37 37 37 39 40 38 38 38 38 39 38 37 39 39 39 40 39
43 44 45 44 42 42 41 40 40 40 39 39 38 38 39 40 41 41 40 40 39 38 39 40 40 40 38 37 36 38 39 38 38 38 36 36 36 35 36 37 37 37 38
47 47 45 42 41 40 40 40 40 40 39 38 38 38 39 39 39 38 38 38 37 37 38 39 39 39 39 37 37 36 36 36 38 38 37 35 35 35 35 35 35 35 35
44 43 43 42 42 41 40 39 39 39 38 38 38 37 38 38 37 38 38 38 38 37 37 38 39 39 39 38 37 36 37 36 36 38 37 37 36 35 35 34 34 33 34
44 44 42 41 40 39 38 38 38 38 38 37 37 37 36 36 36 35 35 34 33 33 33 33 34 33 34 34 35 33 33 34 34 35 35 36 37 35 35 34 34 33 34
39 38 38 38 37 37 37 36 36 37 37 36 36 34 35 34 33 32 32 31 30 30 29 29 30 31 32 33 33 31 32 32 33 32 33 35 35 35 35 33 33 33 33
35 35 34 34 35 35 35 35 35 35 34 35 33 32 32 31 30 30 30 30 29 29 28 28 28 28 31 33 32 30 31 32 31 33 34 34 35 35 34 34 33 32 32
36 35 34 33 33 33 32 31 33 32 32 30 30 31 31 31 30 30 29 30 31 30 28 29 29 30 29 29 29 30 30 31 31 32 32 34 34 34 35 34 33 33 33
34 33 32 31 30 30 30 30 30 30 30 30 29 29 28 27 27 27 27 26 29 26 27 27 30 30 30 31 31 30 30 30 32 32 33 33 33 32 32 32 32 32 33
33 31 31 30 28 28 28 28 29 29 28 28 28 28 28 28 26 25 26 27 27 29 29 30 29 32 33 32 32 30 31 31 33 32 31 31 31 31 31 31 31 32 32

GFSMW_sfc_30mbdewp_264.txt.gz
Dewpoint
29 30 31 31 33 39 51 58 61 63 65 65 64 64 64 65 66 66 65 65 66 65 64 64 64 64 64 64 64 62 62 61 62 61 60 60 61 61 61 61 60 58 59
24 28 32 33 38 37 45 55 59 62 65 65 66 66 66 65 66 66 66 65 66 67 66 65 65 65 64 64 63 63 62 62 62 61 60 59 59 60 61 61 61 61 61
27 32 36 42 49 48 48 54 58 61 65 65 66 66 66 65 66 65 65 65 65 66 67 66 66 65 65 64 64 64 63 62 62 62 61 58 57 57 58 60 60 60 60
32 38 42 42 44 48 56 58 58 62 65 66 66 65 65 64 65 65 65 65 65 65 65 66 66 66 66 65 64 64 64 63 62 63 63 62 60 58 57 57 57 59 56
37 40 42 44 45 45 46 58 61 62 64 65 66 65 64 64 64 64 64 64 64 64 65 66 66 66 66 66 65 65 64 64 63 63 63 62 63 63 61 58 56 57 57
34 44 47 49 51 54 52 47 59 62 63 65 65 65 64 64 64 64 64 64 65 66 66 65 65 66 66 66 66 66 65 65 64 64 64 63 62 61 61 60 60 56 57
35 49 51 49 53 54 56 53 55 61 63 64 64 64 64 64 64 65 66 65 66 66 66 66 66 66 66 66 66 66 66 66 65 65 64 64 64 64 62 60 59 58 57
43 52 51 52 55 56 56 58 60 61 64 64 64 65 66 65 62 63 63 63 64 64 64 64 64 64 65 66 67 67 66 66 65 65 65 64 63 63 62 61 59 55 55
48 52 54 55 53 51 54 55 55 56 58 59 59 60 61 61 61 61 61 61 61 61 62 62 62 63 63 62 62 63 64 65 65 64 64 64 63 63 63 62 60 58 54
37 49 53 52 52 53 54 56 58 58 59 60 60 60 60 60 59 59 60 58 58 58 59 59 58 55 53 53 55 55 57 58 61 61 62 62 62 63 63 61 61 60 58
37 45 51 53 53 55 57 57 57 56 56 56 56 55 54 54 54 54 54 54 54 55 56 55 49 46 45 45 46 47 49 51 54 55 56 56 56 56 55 55 59 59 59
46 52 53 53 54 54 54 53 53 52 52 52 52 52 52 51 50 50 50 51 51 52 50 47 43 42 42 43 44 45 47 48 48 48 49 48 48 49 53 57 58 58 58
50 51 51 50 50 51 51 51 50 49 49 49 48 48 48 48 48 48 50 49 49 50 45 44 41 40 41 41 42 44 43 44 43 43 43 42 43 43 45 48 49 51 54
48 48 49 50 50 50 50 49 47 45 45 46 46 45 46 46 46 48 47 47 46 44 43 40 40 38 38 39 40 40 40 40 40 40 41 39 40 41 41 43 43 45 46
45 48 48 48 49 48 48 46 45 44 44 44 44 44 45 45 45 45 44 44 43 42 41 39 39 38 37 37 38 40 39 38 37 38 40 39 38 39 40 40 39 40 41
37 44 48 48 48 46 45 45 44 43 42 42 42 42 43 43 43 42 41 41 41 41 41 40 39 37 36 36 37 39 38 37 37 37 37 38 37 36 37 38 39 38 38
46 46 47 47 45 44 43 43 43 41 40 39 40 42 42 41 41 40 39 39 39 39 40 40 39 38 37 36 36 36 37 37 37 36 35 35 35 35 35 36 36 37 37
46 47 46 45 44 42 42 41 40 39 39 39 40 41 40 39 39 38 38 38 37 37 39 40 39 39 37 36 35 35 35 35 37 38 37 36 34 34 34 34 34 35 35
45 46 45 44 44 44 44 42 39 39 38 38 39 39 38 38 38 37 37 37 37 36 36 36 37 35 34 35 32 33 35 35 35 37 38 37 36 35 35 33 33 33 33
46 43 42 43 42 42 42 41 40 38 37 37 37 37 36 36 35 35 34 33 33 32 33 32 32 32 32 33 33 31 31 31 31 31 32 34 35 36 35 34 33 32 33
43 42 41 41 41 41 40 39 38 37 37 37 36 35 34 33 33 32 31 30 29 29 29 28 30 29 30 31 33 30 29 30 31 31 31 33 34 35 35 35 33 32 32
42 41 40 40 40 40 39 38 37 37 36 34 33 32 32 30 30 29 29 29 29 28 27 27 27 29 30 33 30 29 29 29 30 30 31 33 34 34 35 34 34 33 32
37 36 35 35 35 35 35 35 35 34 33 32 32 32 31 30 28 28 29 31 30 28 25 27 27 28 31 31 30 30 28 30 29 30 32 33 34 34 34 35 34 33 32
36 35 34 34 34 34 35 35 33 32 31 30 29 29 28 27 27 26 26 26 27 27 28 28 28 30 31 31 30 31 29 30 30 31 31 32 33 33 33 33 32 32 32
34 32 32 32 31 32 32 31 31 30 29 28 27 27 27 27 26 26 26 26 27 27 27 26 24 23 22 25 27 28 29 30 30 32 31 32 32 31 31 31 32 32 32
33 32 31 31 30 28 29 29 28 26 24 24 25 26 24 24 24 24 23 24 25 25 26 21 20 20 21 21 22 23 24 29 27 27 27 29 29 29 31 31 31 31 31

GFSMW_sfc_30mbdewp_270.txt.gz
Dewpoint
22 22 24 28 34 51 55 58 60 63 63 62 61 60 59 59 61 62 62 62 62 61 61 61 62 62 61 61 62 62 61 61 62 61 61 61 61 61 61 61 61 61 61
22 21 21 23 29 34 50 54 58 61 63 63 62 61 61 61 62 63 64 63 63 63 63 62 62 63 63 63 63 63 62 62 62 61 60 59 59 61 61 61 61 61 62
21 22 25 29 34 33 33 48 53 57 63 63 63 63 63 64 64 64 64 64 64 64 64 63 63 63 63 63 63 63 63 62 63 63 61 59 57 58 58 59 60 61 61
31 33 34 38 36 38 37 34 40 52 60 63 62 62 61 61 63 64 65 65 65 66 65 64 64 64 64 64 64 64 64 63 62 63 63 63 61 59 58 60 59 59 59
35 35 39 49 47 39 44 50 41 46 56 63 62 63 62 62 64 64 65 65 66 66 66 66 66 65 65 65 65 65 64 64 64 64 63 62 63 63 60 58 59 59 59
35 34 41 54 51 51 49 48 57 54 60 63 63 64 63 64 64 64 65 65 65 65 65 65 66 66 66 66 66 66 66 65 65 65 64 64 62 61 60 59 59 59 60
36 36 36 49 53 55 57 57 53 60 63 64 64 65 65 65 64 64 64 64 65 64 64 63 62 61 60 60 62 62 62 62 63 63 64 64 64 63 62 60 58 58 58
37 38 45 49 53 55 57 58 59 62 64 65 65 65 65 64 64 64 65 63 61 60 58 55 52 51 51 53 56 53 53 56 56 55 56 57 56 56 58 58 57 55 55
38 49 53 53 55 57 58 59 60 61 63 64 63 63 63 62 61 61 61 59 57 51 48 47 45 45 46 47 49 49 50 50 50 50 50 49 49 51 53 54 54 54 51
42 51 53 55 56 56 56 57 58 57 58 59 59 59 59 58 57 57 56 53 49 46 44 43 43 43 45 46 47 45 45 45 45 44 44 42 43 44 46 48 50 51 51
38 48 51 53 55 55 54 55 55 54 54 53 53 53 53 53 53 52 49 47 44 43 42 42 41 42 43 43 43 42 42 41 41 40 40 40 41 40 41 43 44 45 46
26 30 41 43 52 54 53 53 53 53 52 51 51 50 50 50 49 46 45 43 40 40 40 40 40 41 41 41 40 40 39 39 39 38 38 38 38 38 39 39 39 40 42
24 23 31 37 39 53 52 51 50 49 48 48 48 48 47 45 44 43 41 40 39 39 38 39 39 39 39 38 38 38 38 37 38 37 36 36 37 37 38 38 37 37 38
23 22 24 31 38 52 51 50 49 50 48 47 46 45 44 43 42 41 40 39 39 37 37 37 37 37 37 37 37 37 37 36 36 36 36 36 35 35 36 37 38 37 36
22 24 27 32 38 51 48 49 49 49 47 46 45 43 43 42 41 41 41 40 39 38 37 36 36 34 34 34 35 37 36 36 35 35 36 36 36 35 35 35 35 36 36
25 28 32 38 40 49 47 47 46 46 46 44 42 41 40 40 40 40 40 40 40 39 38 36 34 32 31 32 33 35 36 35 34 34 34 35 36 36 35 34 33 34 34
31 33 37 42 44 48 45 44 44 43 42 41 40 39 38 38 38 38 38 38 37 37 35 35 34 32 31 31 31 32 32 32 31 31 32 31 31 33 35 36 34 33 33
34 36 42 44 46 46 44 43 43 43 41 40 40 40 38 37 36 35 34 34 33 33 32 31 31 30 31 31 30 29 30 29 29 29 29 29 30 31 33 34 34 33 31
37 41 43 44 45 43 42 42 42 41 40 39 38 37 36 34 33 32 31 31 30 30 28 29 30 30 31 31 30 28 27 27 27 28 28 28 28 29 32 33 32 33 33
39 41 42 44 43 43 42 41 40 38 37 35 34 33 33 31 30 30 29 29 28 28 28 28 30 30 31 29 28 29 27 26 26 26 27 29 28 28 29 32 32 31 32
39 39 41 42 42 42 40 38 36 35 34 33 33 32 32 32 30 29 29 29 28 28 28 27 28 26 25 26 26 25 25 26 26 26 27 28 29 30 28 30 31 32 33
38 38 38 39 40 39 37 35 34 34 33 32 32 31 31 31 30 28 28 28 28 26 23 22 22 23 23 22 22 22 22 23 23 24 26 26 26 30 29 27 30 32 32
37 36 36 36 36 35 34 32 32 33 32 31 31 30 30 29 28 27 26 25 23 21 21 20 19 19 20 21 20 20 20 20 21 21 21 22 23 24 27 29 29 31 31
37 35 35 32 31 31 31 31 31 31 31 29 29 28 26 25 26 24 23 22 20 19 18 17 16 16 18 19 19 19 20 19 19 19 21 20 20 19 20 21 23 26 28
35 34 32 30 30 31 30 31 31 30 28 26 25 24 23 22 23 23 22 21 20 19 18 16 17 17 17 17 17 17 17 18 17 17 17 16 16 16 17 18 19 20 23
33 31 31 30 29 29 29 29 29 27 25 23 22 21 21 21 20 19 18 19 18 17 16 15 16 16 16 15 15 15 15 15 15 14 13 14 14 14 16 17 17 18 20

GFSMW_sfc_30mbdewp_273.txt.gz
Dewpoint
27 28 31 33 34 36 46 58 60 62 63 62 59 58 57 57 58 59 61 62 62 62 62 61 61 61 60 59 61 61 61 62 63 62 62 63 63 63 63 63 62 62 62
35 35 36 39 43 43 41 42 55 60 63 62 61 60 59 59 59 60 62 61 62 61 61 61 61 62 61 62 62 63 62 63 64 62 63 60 61 62 63 63 63 62 62
36 36 36 39 47 53 51 43 42 53 61 63 62 62 62 61 61 61 61 62 62 62 62 62 62 63 63 63 64 64 64 63 64 64 62 59 59 60 61 62 62 63 63
37 37 38 40 42 53 54 50 45 43 58 63 62 62 61 60 61 61 62 63 63 64 64 63 64 64 64 64 65 65 65 64 64 64 64 63 63 60 58 60 62 63 62
39 45 46 50 50 54 57 56 53 52 45 61 63 63 62 62 63 64 64 64 65 65 64 65 64 65 65 65 66 66 65 65 64 64 64 63 64 64 61 57 58 61 61
40 48 50 53 54 56 57 59 58 56 57 53 64 63 63 63 64 65 65 66 66 65 66 65 65 66 66 66 67 67 66 65 65 65 64 63 62 61 61 59 59 58 59
42 48 48 50 55 56 58 60 61 60 63 63 64 64 64 64 63 65 65 66 65 65 66 66 64 61 61 61 60 59 59 59 58 57 57 59 58 57 60 59 58 56 57
32 34 41 44 50 56 57 58 61 63 65 65 66 66 65 65 65 66 66 63 57 54 54 54 53 53 54 55 54 55 55 55 54 54 53 55 53 54 54 54 54 53 54
30 26 29 36 41 54 55 56 57 59 60 61 61 60 61 60 60 59 55 52 51 49 47 49 49 48 49 49 49 49 49 48 48 47 47 47 46 48 49 50 51 50 49
28 25 25 32 39 46 54 55 55 55 55 55 54 54 53 52 51 50 49 49 48 48 46 45 45 45 45 45 45 44 44 43 43 43 43 43 43 43 43 45 46 48 46
27 24 24 27 33 40 53 53 53 53 53 53 53 52 50 48 47 46 46 44 44 43 43 43 42 41 42 42 42 41 41 41 41 40 40 40 40 40 40 41 41 41 42
25 23 23 25 31 39 51 52 52 51 51 51 51 50 48 46 44 42 41 41 40 41 41 40 40 40 40 40 40 39 39 39 39 38 38 38 38 38 38 39 38 39 39
24 21 23 26 31 40 51 51 51 51 51 49 48 46 44 42 41 41 40 40 39 39 38 38 38 39 38 38 38 38 37 37 37 37 37 36 36 36 37 37 37 37 37
22 21 24 27 34 42 48 51 50 50 48 47 45 43 42 41 41 40 39 38 37 36 36 36 35 36 36 36 37 37 37 37 37 37 37 36 35 35 35 35 36 35 35
22 23 28 30 36 43 45 50 50 50 48 45 44 43 42 42 41 40 39 38 37 37 35 34 33 32 33 34 36 37 36 35 35 34 35 35 36 36 36 34 33 33 33
22 26 29 32 38 43 46 48 48 47 46 43 42 42 41 41 41 40 40 39 37 36 34 32 31 30 29 31 32 34 33 32 32 32 31 31 31 32 35 34 34 34 33
26 29 32 36 40 44 47 47 46 44 43 41 41 41 40 40 39 39 38 37 35 34 32 31 30 30 31 30 29 30 30 30 30 30 29 29 29 31 29 30 31 31 33
27 32 35 38 42 44 44 44 44 43 41 40 40 39 38 36 35 34 33 31 30 29 30 30 30 30 29 30 29 29 29 28 28 28 27 27 27 27 27 27 28 29 30
31 36 38 40 42 43 43 43 42 41 39 37 37 36 34 33 32 31 31 30 28 29 30 30 30 29 27 26 25 26 25 24 25 26 27 27 27 28 29 28 26 27 28
32 37 38 40 41 42 40 38 37 35 34 34 33 33 32 31 31 31 30 30 30 29 28 24 23 23 22 22 22 21 20 20 19 20 22 26 26 24 26 27 26 24 24
34 38 39 40 42 40 37 35 33 32 33 33 33 32 32 32 32 31 31 29 24 22 21 21 20 19 20 20 20 20 18 19 18 19 20 20 21 22 23 24 24 25 29
36 38 38 38 38 37 34 33 31 32 32 31 30 30 30 30 30 27 25 21 20 18 18 18 18 19 19 20 19 19 19 19 18 17 18 20 20 20 20 21 21 22 25
37 37 36 36 35 34 33 31 31 31 31 29 28 28 28 27 26 24 21 19 17 17 16 16 16 16 18 19 18 18 18 18 18 17 18 18 18 19 19 19 20 21 22
37 36 34 31 30 31 31 31 31 30 29 27 27 26 26 25 23 21 20 19 18 16 15 15 16 16 16 17 18 17 17 17 17 16 17 17 17 17 17 18 20 20 20
35 34 31 30 29 30 29 30 30 29 26 25 24 24 23 22 20 19 20 19 18 16 16 16 16 16 16 17 17 17 16 16 14 15 15 14 15 14 15 15 16 17 17
32 31 30 28 28 27 27 27 28 26 24 22 21 21 20 18 17 16 16 17 17 16 15 15 16 17 15 15 15 15 13 13 12 13 13 13 13 12 13 13 14 15 15